This is the latest recevied weather packets stored in our database for station/object SP1BMW-13. If no packets are shown the sender has not sent any weather packets the latest 10 day(s).
| Time | Temp. | Humidity | Pressure | Rain* | Wind** | Luminosity | Snow |
|---|---|---|---|---|---|---|---|
| 1787917518 | 24.44° C | 52% | 1009.1 hPa | 0 mm | 1.34 m/s, 48° | 182 W/m² | - |
| 1787917458 | 24.44° C | 52% | 1009.3 hPa | 0 mm | 1.34 m/s, 44° | 185 W/m² | - |
| 1787917398 | 24.44° C | 52% | 1009.2 hPa | 0 mm | 0.45 m/s, 54° | 194 W/m² | - |
| 1787917337 | 24.44° C | 52% | 1009.3 hPa | 0 mm | 1.34 m/s, 255° | 206 W/m² | - |
| 1787917277 | 24.44° C | 53% | 1009.1 hPa | 0 mm | 0.89 m/s, 53° | 218 W/m² | - |
| 1787917218 | 24.44° C | 53% | 1009 hPa | 0 mm | 0.89 m/s, 39° | 226 W/m² | - |
| 1787917157 | 24.44° C | 53% | 1008.9 hPa | 0 mm | 1.34 m/s, 42° | 235 W/m² | - |
| 1787917098 | 24.44° C | 53% | 1009 hPa | 0 mm | 0.89 m/s, 83° | 236 W/m² | - |
| 1787917038 | 24.44° C | 51% | 1009 hPa | 0 mm | 0.89 m/s, 35° | 233 W/m² | - |
| 1787916978 | 24.44° C | 52% | 1009.1 hPa | 0 mm | 0.89 m/s, 261° | 236 W/m² | - |
| 1787916918 | 24.44° C | 51% | 1009.1 hPa | 0 mm | 1.79 m/s, 36° | 254 W/m² | - |
| 1787916858 | 24.44° C | 51% | 1009.2 hPa | 0 mm | 1.79 m/s, 19° | 284 W/m² | - |
| 1787916798 | 25° C | 52% | 1009.3 hPa | 0 mm | 0.89 m/s, 130° | 325 W/m² | - |
| 1787916738 | 25° C | 51% | 1009.3 hPa | 0 mm | 1.34 m/s, 51° | 331 W/m² | - |
| 1787916677 | 25° C | 51% | 1009.3 hPa | 0 mm | 2.24 m/s, 55° | 453 W/m² | - |
| 1787916617 | 25° C | 51% | 1009.3 hPa | 0 mm | 0.45 m/s, 14° | 390 W/m² | - |
| 1787916558 | 25° C | 50% | 1009.3 hPa | 0 mm | 2.24 m/s, 36° | 312 W/m² | - |
| 1787916498 | 25° C | 50% | 1009.5 hPa | 0 mm | 0.89 m/s, 37° | 322 W/m² | - |
| 1787916438 | 25° C | 50% | 1009.5 hPa | 0 mm | 1.79 m/s, 47° | 402 W/m² | - |
| 1787916378 | 25° C | 51% | 1009.4 hPa | 0 mm | 0.89 m/s, 21° | 349 W/m² | - |
| 1787916318 | 25° C | 51% | 1009.4 hPa | 0 mm | 1.34 m/s, 28° | 368 W/m² | - |
| 1787916258 | 25° C | 49% | 1009.3 hPa | 0 mm | 0.89 m/s, 357° | 566 W/m² | - |
| 1787916198 | 25° C | 50% | 1009.3 hPa | 0 mm | 1.34 m/s, 55° | 657 W/m² | - |
| 1787916138 | 25° C | 49% | 1009 hPa | 0 mm | 1.79 m/s, 36° | 585 W/m² | - |
| 1787916078 | 25° C | 50% | 1008.9 hPa | 0 mm | 1.79 m/s, 45° | 549 W/m² | - |
* Rain latest hour (hover to see other rain measurements)
** Current wind speed in m/s (hover to see current wind gust speed)